Caro, MI

4:26 AM EDT on August 29, 2016 (GMT -0400)
Caro

Weather History for KCFS - March, 2014

Change the Weather History Date:

Tuesday, March 25, 2014

  Actual Average (KMBS) Record (KMBS)
Temperature  
Mean Temperature 24 °F 37 °F  
Max Temperature 31 °F 46 °F 70 °F (2012)
Min Temperature 17 °F 28 °F 12 °F (2011)
Degree Days  
Heating Degree Days 41    
Month to date heating degree days  
Since 1 July heating degree days  
Cooling Degree Days 0    
Month to date cooling degree days  
Year to date cooling degree days  
Moisture  
Dew Point 13 °F    
Average Humidity 62    
Maximum Humidity 84    
Minimum Humidity 42    
Precipitation  
Precipitation 0.00 in 0.06 in 0.49 in (1997)
Month to date precipitation 1.63  
Year to date precipitation 4.95  
Snow  
Snow 0.00 in - - ()
Month to date snowfall  
Since 1 July snowfall  
Snow Depth -    
Sea Level Pressure  
Sea Level Pressure 29.96 in    
Wind  
Wind Speed 8 mph (WNW)    
Max Wind Speed 17 mph    
Max Gust Speed 24 mph    
Visibility 9 miles    
Events Snow    
T = Trace of Precipitation, MM = Missing Value Source: NWS Daily Summary

Daily Weather History Graph

Daily Weather History Graph

Search for Another Location

Airport or City:

Trip Planner

Search our weather history database for the weather conditions in past years. The results will help you decide how hot, cold, wet, or windy it might be!

Date:

Astronomy

Mar. 25, 2014 Rise Set
Actual Time 7:28 AM EDT 7:52 PM EDT
Civil Twilight 6:59 AM EDT 8:20 PM EDT
Nautical Twilight 6:25 AM EDT 8:54 PM EDT
Astronomical Twilight 5:51 AM EDT 9:29 PM EDT
Moon 3:57 AM EDT (3/25) 2:13 PM EDT (3/25)
Length of Visible Light 13h 21m
Length of Day
12h 24m
Waning Crescent, 32% of the Moon is Illuminated
Mar 25
Waning Crescent
Mar 30
New
Apr 7
First Quarter
Apr 15
Full
Apr 22
Last Quarter

Hourly Weather History & Observations

Time (EDT) Temp. Windchill Dew Point Humidity Pressure Visibility Wind Dir Wind Speed Gust Speed Precip Events Conditions
12:15 AM 20.5 °F 15.6 °F 12.4 °F 71% 30.04 in 10.0 mi SSW 3.5 mph - N/A   Clear
12:35 AM 20.1 °F 15.2 °F 13.1 °F 74% 30.04 in 10.0 mi SSW 3.5 mph - N/A   Scattered Clouds
12:55 AM 19.9 °F - 14.4 °F 79% 30.03 in 10.0 mi Calm Calm - N/A   Mostly Cloudy
1:15 AM 21.0 °F - 14.9 °F 77% 30.01 in 10.0 mi Calm Calm - N/A   Overcast
1:35 AM 20.7 °F - 14.4 °F 77% 30.00 in 10.0 mi Calm Calm - N/A   Mostly Cloudy
1:55 AM 21.2 °F - 15.6 °F 79% 29.99 in 10.0 mi Calm Calm - N/A   Overcast
2:15 AM 21.4 °F - 15.1 °F 77% 29.98 in 10.0 mi Calm Calm - N/A   Overcast
2:35 AM 21.4 °F - 14.9 °F 76% 29.97 in 10.0 mi Calm Calm - N/A   Overcast
2:55 AM 22.5 °F 16.3 °F 14.0 °F 70% 29.96 in 10.0 mi South 4.6 mph - N/A   Overcast
3:15 AM 23.9 °F 15.8 °F 13.8 °F 65% 29.94 in 10.0 mi South 6.9 mph - N/A   Overcast
3:35 AM 24.6 °F 15.8 °F 13.1 °F 62% 29.93 in 10.0 mi South 8.1 mph - N/A   Overcast
3:55 AM 24.8 °F 15.3 °F 12.6 °F 60% 29.92 in 10.0 mi South 9.2 mph - N/A   Overcast
4:14 AM 24.8 °F 15.3 °F 11.8 °F 58% 29.90 in 10.0 mi South 9.2 mph - N/A   Overcast
4:35 AM 25.5 °F 14.3 °F 11.1 °F 54% 29.89 in 10.0 mi SSW 12.7 mph 16.1 mph N/A   Overcast
4:55 AM 26.1 °F 15.6 °F 11.3 °F 54% 29.88 in 10.0 mi South 11.5 mph - N/A   Overcast
5:15 AM 26.2 °F 17.1 °F 11.8 °F 55% 29.87 in 10.0 mi SSW 9.2 mph - N/A   Overcast
5:35 AM 26.4 °F 17.3 °F 12.0 °F 55% 29.87 in 10.0 mi SSW 9.2 mph - N/A   Overcast
5:54 AM 26.6 °F 14.7 °F 13.1 °F 57% 29.86 in 10.0 mi SW 15.0 mph - N/A   Overcast
6:15 AM 27.0 °F 15.6 °F 14.2 °F 59% 29.85 in 10.0 mi SSW 13.8 mph 18.4 mph N/A   Overcast
6:35 AM 27.1 °F 15.4 °F 15.6 °F 62% 29.85 in 10.0 mi SW 15.0 mph 19.6 mph N/A   Overcast
6:55 AM 26.6 °F 15.2 °F 18.3 °F 71% 29.85 in 10.0 mi SW 13.8 mph 20.7 mph N/A   Overcast
7:15 AM 26.6 °F 16.2 °F 19.4 °F 74% 29.86 in 10.0 mi SW 11.5 mph 19.6 mph N/A   Overcast
7:35 AM 26.4 °F 15.5 °F 20.5 °F 78% 29.86 in 10.0 mi WSW 12.7 mph - N/A   Overcast
7:55 AM 26.4 °F 15.5 °F 21.6 °F 82% 29.87 in 7.0 mi WSW 12.7 mph 18.4 mph N/A   Overcast
8:15 AM 26.4 °F 15.0 °F 22.1 °F 84% 29.87 in 4.0 mi WSW 13.8 mph 18.4 mph N/A Snow Light Snow
8:35 AM 26.6 °F 15.2 °F 22.1 °F 83% 29.87 in 5.0 mi West 13.8 mph 18.4 mph N/A Snow Light Snow
8:55 AM 26.2 °F 14.7 °F 21.0 °F 81% 29.88 in 7.0 mi West 13.8 mph 21.9 mph N/A   Overcast
9:15 AM 26.1 °F 16.8 °F 20.3 °F 79% 29.88 in 3.0 mi WNW 9.2 mph - N/A Snow Light Snow
9:35 AM 26.6 °F 18.2 °F 19.8 °F 75% 29.88 in 5.0 mi NW 8.1 mph - N/A Snow Light Snow
9:55 AM 27.1 °F 16.9 °F 19.0 °F 72% 29.89 in 7.0 mi NW 11.5 mph - N/A Snow Light Snow
10:15 AM 26.6 °F 16.8 °F 20.1 °F 77% 29.90 in 7.0 mi NW 10.4 mph - N/A Snow Light Snow
10:35 AM 26.4 °F 17.3 °F 19.6 °F 75% 29.90 in 5.0 mi NW 9.2 mph - N/A Snow Light Snow
10:55 AM 27.0 °F 16.1 °F 19.4 °F 73% 29.91 in 10.0 mi NW 12.7 mph 16.1 mph N/A   Overcast
11:15 AM 27.0 °F 18.0 °F 18.5 °F 70% 29.91 in 10.0 mi WNW 9.2 mph - N/A   Mostly Cloudy
11:35 AM 28.6 °F 19.3 °F 17.4 °F 63% 29.92 in 10.0 mi WNW 10.4 mph - N/A   Mostly Cloudy
11:55 AM 29.5 °F 20.4 °F 13.1 °F 51% 29.92 in 10.0 mi West 10.4 mph - N/A   Scattered Clouds
12:15 PM 30.0 °F 21.7 °F 11.1 °F 45% 29.92 in 10.0 mi NNW 9.2 mph 16.1 mph N/A   Clear
12:35 PM 30.6 °F 22.4 °F 10.6 °F 43% 29.92 in 10.0 mi NW 9.2 mph - N/A   Clear
12:55 PM 29.7 °F 24.7 °F 9.1 °F 42% 29.92 in 10.0 mi NNW 4.6 mph - N/A   Mostly Cloudy
1:15 PM 29.5 °F 19.3 °F 12.0 °F 48% 29.92 in 10.0 mi NW 12.7 mph - N/A   Overcast
1:35 PM 28.2 °F - 12.0 °F 51% 29.92 in 5.0 mi Calm Calm - N/A   Haze
1:55 PM 30.0 °F 25.2 °F 11.8 °F 47% 29.92 in 10.0 mi West 4.6 mph - N/A   Overcast
2:15 PM 28.4 °F 19.7 °F 12.7 °F 52% 29.92 in 10.0 mi NW 9.2 mph - N/A   Overcast
2:35 PM 29.1 °F 23.0 °F 13.3 °F 52% 29.92 in 5.0 mi WNW 5.8 mph - N/A Snow Light Snow
2:55 PM 31.8 °F 23.3 °F 12.6 °F 45% 29.92 in 10.0 mi WNW 10.4 mph 17.3 mph N/A   Overcast
3:15 PM 27.7 °F 16.1 °F 20.7 °F 75% 29.93 in 0.8 mi NW 15.0 mph - N/A Snow Light Snow
3:35 PM 27.3 °F 18.4 °F 22.8 °F 83% 29.93 in 2.5 mi NW 9.2 mph - N/A Snow Light Snow
3:55 PM 26.1 °F 14.0 °F 20.3 °F 79% 29.94 in 5.0 mi NW 15.0 mph 24.2 mph N/A Snow Light Snow
4:15 PM 24.6 °F 15.1 °F 20.3 °F 84% 29.94 in 0.8 mi NW 9.2 mph - N/A Snow Light Snow
4:35 PM 27.3 °F 19.1 °F 19.4 °F 72% 29.94 in 10.0 mi NW 8.1 mph - N/A   Mostly Cloudy
4:55 PM 25.2 °F 14.4 °F 17.6 °F 73% 29.95 in 1.0 mi NNW 11.5 mph 21.9 mph N/A Snow Light Snow
5:15 PM 27.9 °F 17.3 °F 14.0 °F 56% 29.95 in 10.0 mi NW 12.7 mph 20.7 mph N/A   Overcast
5:35 PM 26.8 °F 14.9 °F 10.0 °F 49% 29.96 in 10.0 mi NNW 15.0 mph 21.9 mph N/A   Overcast
5:55 PM 26.1 °F 13.1 °F 9.0 °F 49% 29.97 in 10.0 mi NNW 17.3 mph 21.9 mph N/A   Overcast
6:15 PM 25.7 °F 14.6 °F 7.3 °F 46% 29.99 in 10.0 mi NW 12.7 mph 24.2 mph N/A   Overcast
6:35 PM 25.2 °F 13.3 °F 7.9 °F 48% 30.00 in 10.0 mi NNW 13.8 mph 21.9 mph N/A   Overcast
6:55 PM 24.3 °F 10.8 °F 6.4 °F 47% 30.01 in 10.0 mi NW 17.3 mph 20.7 mph N/A   Overcast
7:15 PM 23.9 °F 11.2 °F 7.0 °F 49% 30.02 in 10.0 mi NW 15.0 mph 21.9 mph N/A   Mostly Cloudy
7:35 PM 23.0 °F 11.7 °F 7.9 °F 52% 30.03 in 10.0 mi NNW 11.5 mph - N/A   Mostly Cloudy
7:55 PM 22.5 °F 11.1 °F 6.6 °F 51% 30.04 in 10.0 mi NNW 11.5 mph 19.6 mph N/A   Overcast
8:15 PM 21.7 °F 9.6 °F 5.9 °F 51% 30.05 in 10.0 mi NW 12.7 mph - N/A   Scattered Clouds
8:35 PM 21.0 °F 9.3 °F 5.9 °F 52% 30.06 in 10.0 mi NW 11.5 mph - N/A   Scattered Clouds
8:55 PM 20.8 °F 8.4 °F 5.0 °F 50% 30.08 in 10.0 mi NW 12.7 mph - N/A   Scattered Clouds
9:15 PM 20.3 °F 9.0 °F 5.5 °F 53% 30.09 in 10.0 mi NNW 10.4 mph - N/A   Clear
9:35 PM 19.8 °F 9.9 °F 5.2 °F 53% 30.10 in 10.0 mi NW 8.1 mph - N/A   Clear
9:55 PM 19.4 °F 7.9 °F 4.8 °F 53% 30.11 in 10.0 mi NW 10.4 mph - N/A   Clear
10:15 PM 19.0 °F 8.2 °F 3.2 °F 50% 30.12 in 10.0 mi NW 9.2 mph 17.3 mph N/A   Clear
10:35 PM 18.7 °F 7.0 °F 3.2 °F 51% 30.13 in 10.0 mi NW 10.4 mph 17.3 mph N/A   Clear
10:55 PM 18.5 °F 6.8 °F 3.7 °F 53% 30.13 in 10.0 mi NW 10.4 mph - N/A   Clear
11:15 PM 17.8 °F 8.5 °F 3.9 °F 55% 30.14 in 10.0 mi NW 6.9 mph - N/A   Clear
11:35 PM 17.4 °F 9.1 °F 4.1 °F 56% 30.15 in 10.0 mi NW 5.8 mph - N/A   Clear
11:55 PM 17.1 °F 7.6 °F 3.9 °F 56% 30.15 in 10.0 mi NW 6.9 mph - N/A   Clear